TimeMDT,TemperatureF,Dew PointF,Humidity,Sea Level PressureIn,VisibilityMPH,Wind Direction,Wind SpeedMPH,Gust SpeedMPH,PrecipitationIn,Events,Conditions,WindDirDegrees,DateUTC
12:53 AM,59.0,48.9,69,29.77,10.0,South,13.8,-,N/A,,Clear,170,2013-05-17 06:53:00
1:53 AM,55.0,48.9,80,29.76,10.0,South,9.2,-,N/A,,Clear,170,2013-05-17 07:53:00
2:53 AM,55.0,50.0,83,29.75,10.0,South,9.2,-,N/A,,Clear,170,2013-05-17 08:53:00
3:53 AM,54.0,50.0,86,29.76,10.0,South,9.2,-,N/A,,Clear,180,2013-05-17 09:53:00
4:53 AM,54.0,48.9,83,29.78,10.0,Calm,Calm,-,N/A,,Clear,0,2013-05-17 10:53:00
6:53 AM,57.9,52.0,81,29.78,10.0,SW,9.2,-,N/A,,Clear,220,2013-05-17 12:53:00
7:53 AM,63.0,55.0,75,29.79,10.0,SSW,17.3,-,N/A,,Clear,210,2013-05-17 13:53:00
8:53 AM,68.0,55.9,65,29.76,10.0,SW,13.8,-,N/A,,Clear,220,2013-05-17 14:53:00
9:53 AM,71.1,55.9,59,29.74,10.0,SSW,12.7,-,N/A,,Clear,200,2013-05-17 15:53:00
10:53 AM,77.0,54.0,45,29.73,10.0,South,16.1,-,N/A,,Clear,180,2013-05-17 16:53:00
11:53 AM,82.9,53.1,36,29.71,10.0,South,19.6,27.6,N/A,,Clear,170,2013-05-17 17:53:00
1:53 PM,88.0,48.0,25,29.67,10.0,South,19.6,28.8,N/A,,Clear,190,2013-05-17 19:53:00
2:53 PM,88.0,48.0,25,29.64,10.0,South,25.3,32.2,N/A,,Partly Cloudy,170,2013-05-17 20:53:00
3:53 PM,88.0,46.0,23,29.62,10.0,SSE,20.7,29.9,N/A,,Partly Cloudy,160,2013-05-17 21:53:00
4:53 PM,87.1,46.9,25,29.60,10.0,South,18.4,28.8,N/A,,Partly Cloudy,180,2013-05-17 22:53:00
5:53 PM,87.1,46.0,24,29.60,10.0,South,26.5,34.5,N/A,,Scattered Clouds,170,2013-05-17 23:53:00
6:53 PM,84.0,51.1,32,29.59,10.0,South,27.6,35.7,N/A,,Mostly Cloudy,170,2013-05-18 00:53:00
7:53 PM,78.1,52.0,40,29.61,10.0,SSE,23.0,31.1,N/A,,Clear,150,2013-05-18 01:53:00
8:53 PM,73.0,55.0,53,29.64,10.0,SE,18.4,26.5,N/A,,Clear,140,2013-05-18 02:53:00
9:53 PM,71.1,57.0,61,29.65,10.0,SSE,21.9,28.8,N/A,,Clear,150,2013-05-18 03:53:00
10:53 PM,68.0,59.0,73,29.63,10.0,SSE,20.7,27.6,N/A,,Clear,150,2013-05-18 04:53:00
11:53 PM,66.0,60.1,81,29.61,10.0,SSE,19.6,31.1,N/A,,Clear,160,2013-05-18 05:53:00